User: anonymous   Login
Location: Ciserano
(45.5833°N, 9.6000°E)
Time: 09:30:39
(UTC+00:00)
Language:

FALCON 9 DEB - Orbit

View from above orbital plane
View from above orbital plane
View from above satellite
View from above satellite

Ground track
Ground track

The orbit data is extracted from the following two-line orbital elements,

1 44295U 19029BN  21065.39864280  .00003443  00000-0  79960-4 0  9998
2 44295  53.0011 312.2704 0008947 176.2018 183.9056 15.45297672101976
Epoch (UTC): 06 March 2021 09:34:02
Eccentricity: 0.0008947
inclination: 53.0011°
perigee height: 424 km
apogee height: 436 km
right ascension of ascending node: 312.2704°
argument of perigee: 176.2018°
revolutions per day: 15.45297672
mean anomaly at epoch: 183.9056°
orbit number at epoch: 10197

The dashed part of the orbit path shows where the satellite is in the earth's shadow,  

DLR